Location: Chiroubles
(46.1812°N, 4.6660°E)
Time: 02:52:41
(UTC+00:00)

Cosmos 1743 - Pass Details

Date: 15 August 2020
Orbit: 509 x 528 km, 82.5° (Epoch: 27 September)

Event Time Altitude Azimuth Distance (km) Brightness Sun altitude
Exits shadow 22:34:20 33° 5° (N) 903 4.3 -28.0°
Drops below altitude 10° 22:36:36 10° 8° (N) 1,786 6.2 -28.2°
Sets 22:38:45 0° 9° (N) 2,680 7.3 -28.3°
